Wind_Speed
44 43 44 46 44 42 43 44 48 49 50 49 51 53 53 53 53 54 54 54 54 53 53 54 54 54 55 56 58 60 62 63 65 66 67 68 67 66 65 64 64 63 63 63
48 46 48 50 46 44 45 46 48 51 51 50 54 54 55 56 57 57 57 56 56 55 55 55 56 57 58 59 61 62 63 64 66 67 67 67 66 64 64 63 62 61 61 61
53 51 53 51 46 46 47 48 49 51 53 55 56 56 57 58 59 59 59 58 57 57 58 58 59 60 61 62 63 63 64 65 65 65 65 64 63 62 61 61 59 58 58 59
56 56 57 53 51 51 52 51 51 53 55 58 59 58 59 60 60 60 60 60 61 61 61 61 62 63 63 63 63 63 63 63 63 63 61 61 60 59 58 57 55 55 56 57
56 57 57 53 51 54 55 54 53 56 58 60 61 60 59 60 61 62 62 63 64 65 64 63 63 63 62 62 61 62 61 60 60 59 58 57 56 54 53 52 52 52 53 54
50 53 54 51 51 53 54 56 56 58 59 60 61 62 61 60 61 62 63 64 64 63 62 62 61 61 60 59 59 58 57 55 55 54 54 52 51 49 49 49 50 50 50 52
46 49 50 49 51 52 54 56 56 58 59 61 62 63 62 61 61 61 61 60 60 60 59 59 58 57 55 54 54 53 51 51 50 50 49 48 47 46 46 47 47 47 48 49
45 47 48 49 50 51 52 54 55 57 59 61 61 60 60 60 60 59 58 57 56 55 54 53 53 52 50 50 50 49 49 49 49 48 47 45 44 44 45 44 44 45 46 48
46 47 47 49 50 50 52 54 55 57 58 59 59 58 58 57 56 55 54 51 50 50 49 48 48 48 48 48 49 47 47 48 47 45 45 44 43 43 43 43 44 45 46 47
48 48 49 50 50 51 53 55 56 57 58 58 59 58 57 54 52 50 49 48 48 47 46 45 45 46 47 47 47 47 46 45 45 45 45 45 44 44 44 43 44 45 45 45
51 51 51 51 51 53 54 55 56 56 58 58 58 56 55 53 51 50 48 47 47 45 44 45 45 46 48 48 48 47 47 47 47 46 46 47 47 46 45 45 45 44 44 44
54 54 57 55 55 56 57 57 57 57 57 56 55 54 54 52 50 48 47 47 46 46 46 47 48 49 50 49 49 49 49 49 49 49 49 50 49 48 47 47 46 44 43 43
57 58 59 59 59 59 59 59 59 59 58 57 56 55 54 52 50 48 47 47 48 48 49 50 51 51 51 51 51 51 51 52 52 52 51 51 51 50 48 47 45 43 43 43
60 60 60 60 61 61 61 60 60 59 58 57 55 54 53 51 50 49 50 50 51 51 52 53 53 53 53 53 53 53 53 53 53 53 53 52 52 51 49 47 44 43 42 42
62 62 63 62 62 62 61 60 59 58 57 55 54 53 52 51 51 51 52 52 52 52 53 53 53 53 53 53 53 53 54 54 54 54 54 54 53 51 49 46 44 42 41 40
62 62 63 62 62 61 61 60 58 56 55 55 54 53 53 53 53 53 53 53 52 52 52 52 52 52 53 53 53 54 54 55 55 55 54 54 52 49 47 45 43 41 39 38
60 60 60 59 59 59 58 57 56 55 55 55 54 53 53 52 52 51 50 50 51 51 52 52 52 53 53 54 54 54 54 55 55 54 53 53 52 49 47 44 42 39 38 36
58 58 57 57 56 55 55 54 54 54 54 53 52 51 50 49 48 47 47 47 48 49 50 51 52 52 52 53 53 54 54 54 54 54 53 52 50 48 45 42 40 37 35 34
55 55 54 53 52 52 51 51 51 51 51 50 48 46 45 45 45 45 46 47 48 48 48 49 49 50 50 51 52 52 52 53 54 54 52 50 47 44 41 39 36 33 31 30
51 51 50 50 50 50 50 50 50 49 48 47 45 44 43 44 45 45 46 46 48 48 47 47 48 48 49 49 50 50 51 52 53 52 49 46 43 41 38 36 33 29 28 27
47 47 47 47 48 48 49 49 48 48 47 46 45 44 44 44 45 46 46 45 46 47 46 46 47 47 48 48 48 49 50 51 51 50 46 43 40 37 33 30 27 24 25 25
44 44 44 45 45 46 46 47 47 47 46 45 44 43 43 43 44 44 45 45 44 44 44 44 45 46 47 47 48 49 50 50 50 47 43 40 37 33 27 24 22 22 22 22
42 43 43 43 44 43 43 44 44 43 43 42 41 41 41 42 42 42 41 42 42 42 42 42 43 45 46 46 47 47 48 48 48 45 41 38 34 29 24 21 19 20 20 20
43 43 43 42 43 42 41 41 40 40 39 39 39 41 41 41 41 42 41 41 41 40 40 41 43 44 44 45 45 45 47 47 46 43 39 34 29 23 20 19 18 19 18 17
42 42 41 41 41 40 40 39 38 38 38 39 40 41 42 42 41 40 40 39 39 39 40 40 41 42 43 43 43 44 45 44 42 38 34 29 23 18 16 16 16 17 16 15
42 41 41 41 40 39 38 37 37 37 37 37 38 39 40 40 40 39 38 38 38 38 38 39 39 40 40 41 42 43 42 40 38 34 28 22 17 14 13 14 15 16 15 14
43 43 42 41 40 39 39 38 38 38 38 38 37 38 38 38 38 38 37 36 36 36 37 37 38 38 38 39 40 40 38 37 33 28 22 16 12 9 10 13 14 15 13 12
Wind_Direction
287 288 288 287 290 293 294 294 293 295 296 298 297 296 297 297 298 298 299 300 300 300 300 299 299 299 298 298 298 299 300 301 303 304 306 308 309 310 312 313 315 316 317 317
287 287 287 287 292 293 292 292 292 293 294 294 293 295 296 297 298 299 300 300 301 301 301 300 300 300 299 300 300 300 301 303 304 305 307 308 309 310 312 314 315 316 316 316
287 287 286 287 291 290 290 290 291 292 292 291 291 293 295 295 297 298 299 300 301 301 301 300 300 300 300 301 301 302 303 305 305 306 308 309 309 310 312 314 315 315 315 316
289 289 288 291 293 293 291 291 292 291 290 290 292 293 294 295 297 298 300 301 301 301 301 301 301 300 301 302 302 303 304 305 307 308 308 309 310 310 311 312 314 314 315 316
291 292 293 295 295 293 292 292 292 290 290 291 292 292 293 296 298 299 300 301 301 301 301 302 302 302 303 303 303 304 305 306 307 308 309 309 310 311 311 312 313 314 315 317
293 294 297 300 297 295 294 294 293 291 292 292 293 293 295 295 296 297 298 298 298 299 301 302 303 303 303 304 305 305 306 308 309 310 311 312 312 312 312 312 313 314 316 317
300 299 302 303 300 299 297 297 295 295 294 293 293 294 297 297 298 298 298 299 299 300 302 303 303 304 304 305 306 308 309 310 311 312 312 313 313 313 313 314 315 315 316 318
303 304 306 305 303 301 299 298 296 295 295 295 296 297 297 298 298 299 299 300 300 302 304 305 305 305 305 306 307 309 310 311 312 312 313 313 314 314 315 315 315 316 316 317
304 306 306 305 304 303 301 300 300 299 299 299 299 298 298 298 299 299 300 301 302 303 305 306 306 306 306 307 308 310 311 311 311 311 312 313 313 314 314 314 315 315 316 317
302 304 303 303 304 304 303 302 302 301 301 300 300 300 300 300 300 300 301 301 302 303 305 306 307 307 307 309 311 312 312 311 311 311 311 311 312 312 313 313 313 314 315 316
300 301 300 303 303 302 302 302 302 302 302 302 302 301 300 300 300 301 301 302 302 303 304 305 306 307 307 309 310 311 311 311 310 310 310 310 310 310 311 311 311 312 313 314
297 297 298 301 300 300 301 302 302 302 302 301 301 300 300 300 300 301 302 303 303 303 303 304 305 306 307 308 308 308 309 309 309 308 308 308 308 307 308 308 309 309 310 312
293 294 295 297 297 298 299 299 300 300 300 300 299 299 299 299 299 300 301 302 303 304 304 305 305 306 306 306 307 307 306 306 306 306 305 305 305 305 305 305 306 307 307 309
290 291 292 293 294 295 295 297 297 298 298 298 297 297 298 298 299 299 300 301 303 304 304 305 305 305 305 305 305 305 305 305 305 304 303 303 302 302 302 302 303 304 304 305
288 289 290 291 292 293 294 294 295 296 296 296 296 296 297 298 299 299 301 302 303 303 304 304 304 304 304 304 304 304 304 304 304 303 303 302 301 299 299 299 299 300 301 301
287 288 289 290 291 292 292 293 293 294 294 294 294 295 296 297 298 300 301 301 302 302 302 303 303 304 304 304 304 304 304 304 304 303 301 301 300 298 296 295 295 295 296 297
287 287 288 289 290 290 291 292 292 293 293 293 294 295 296 297 298 299 300 301 302 302 303 304 304 305 305 306 306 306 306 305 305 304 302 300 299 296 293 292 291 291 291 291
286 287 288 288 289 290 291 291 292 292 293 293 295 296 298 299 299 299 300 301 302 303 303 305 305 306 306 307 308 308 308 308 308 307 304 302 299 295 292 289 286 285 285 285
287 287 288 289 290 290 291 291 292 293 294 296 297 298 299 300 301 302 303 303 303 303 304 305 306 307 308 309 310 310 310 311 311 310 308 305 301 295 291 287 283 280 279 280
288 288 289 289 289 290 291 292 293 294 296 297 298 299 300 300 301 303 304 304 303 304 305 306 307 308 310 311 312 312 313 314 315 314 311 309 304 298 291 285 279 273 271 273
288 289 290 290 290 291 292 293 294 295 296 297 299 299 300 301 302 303 303 303 303 304 306 307 308 310 311 312 313 313 314 316 316 315 312 309 306 301 293 283 273 265 263 266
289 289 289 290 290 291 292 294 295 296 297 298 298 299 300 301 302 303 303 304 305 305 307 307 309 310 312 313 313 314 316 316 316 315 311 308 305 302 292 280 267 258 257 259
290 289 289 290 291 292 293 294 295 296 297 297 298 299 300 301 302 303 303 303 305 306 307 308 309 311 313 314 315 316 317 318 317 315 311 308 303 296 285 271 258 252 251 254
290 290 290 291 292 293 293 294 295 296 297 298 299 300 300 302 303 303 304 305 306 307 308 310 311 313 315 316 318 319 319 319 318 316 313 308 302 291 276 261 250 243 242 249
291 291 292 291 291 292 293 294 296 297 298 298 298 299 300 301 302 303 304 305 306 308 309 311 312 314 316 318 319 321 322 322 321 318 314 308 299 286 267 246 238 234 235 242
291 292 292 292 293 294 295 296 297 298 298 298 298 299 299 300 301 302 304 305 306 308 310 311 313 315 317 319 321 323 324 324 323 321 317 308 296 277 249 231 226 224 228 235
291 292 292 293 294 295 296 298 299 299 299 298 299 299 299 299 300 301 302 303 305 307 309 311 313 316 318 321 324 325 325 325 325 322 319 310 291 261 230 219 216 216 221 227
Height
5782 5780 5776 5772 5771 5769 5764 5760 5754 5751 5747 5744 5737 5731 5728 5724 5719 5715 5711 5706 5702 5697 5692 5687 5682 5677 5671 5665 5658 5651 5645 5638 5631 5623 5615 5607 5599 5590 5582 5573 5564 5555 5545 5536
5771 5770 5765 5762 5763 5760 5754 5749 5744 5740 5737 5733 5725 5721 5716 5711 5706 5702 5698 5694 5689 5684 5679 5674 5669 5663 5657 5651 5644 5637 5630 5624 5616 5608 5601 5593 5585 5576 5568 5560 5551 5542 5533 5524
5758 5757 5753 5753 5755 5749 5744 5740 5735 5729 5726 5719 5714 5710 5705 5699 5694 5690 5685 5681 5676 5671 5666 5661 5655 5648 5642 5636 5629 5622 5616 5609 5601 5593 5586 5578 5570 5563 5555 5547 5539 5530 5521 5512
5745 5743 5738 5745 5741 5736 5730 5728 5724 5717 5711 5705 5701 5697 5692 5686 5681 5677 5672 5667 5662 5657 5652 5646 5640 5633 5627 5620 5614 5607 5601 5594 5586 5579 5571 5564 5556 5549 5542 5534 5527 5518 5510 5501
5733 5728 5724 5729 5729 5720 5715 5713 5711 5702 5696 5691 5686 5683 5680 5674 5668 5663 5658 5653 5647 5641 5636 5631 5624 5617 5611 5605 5598 5592 5585 5579 5572 5564 5557 5550 5543 5536 5529 5522 5515 5507 5498 5490
5723 5717 5712 5717 5712 5705 5701 5698 5694 5687 5681 5677 5671 5666 5666 5663 5656 5651 5646 5640 5634 5627 5622 5616 5609 5602 5596 5590 5583 5577 5571 5565 5558 5551 5543 5537 5530 5524 5517 5511 5503 5496 5487 5479
5712 5705 5703 5704 5698 5692 5688 5685 5678 5672 5667 5662 5657 5653 5649 5646 5642 5637 5632 5626 5619 5613 5607 5601 5594 5587 5581 5576 5570 5564 5558 5552 5545 5538 5531 5525 5519 5513 5506 5499 5492 5485 5477 5469
5702 5696 5695 5690 5685 5680 5675 5670 5665 5659 5654 5648 5644 5640 5636 5632 5627 5621 5616 5610 5604 5598 5593 5587 5580 5574 5569 5563 5557 5552 5546 5540 5533 5527 5520 5513 5507 5502 5495 5488 5481 5474 5466 5458
5692 5689 5684 5678 5672 5667 5662 5656 5651 5646 5642 5636 5631 5627 5623 5618 5613 5608 5602 5597 5591 5585 5581 5575 5568 5562 5556 5551 5546 5540 5534 5528 5522 5516 5509 5503 5497 5491 5484 5478 5471 5463 5456 5448
5681 5679 5673 5668 5661 5656 5651 5645 5639 5634 5628 5623 5618 5614 5609 5604 5599 5594 5589 5584 5579 5574 5569 5564 5557 5551 5545 5540 5534 5529 5523 5517 5511 5505 5499 5492 5486 5480 5473 5467 5460 5453 5445 5438
5669 5666 5661 5658 5651 5645 5639 5633 5627 5622 5616 5611 5606 5601 5596 5592 5587 5583 5577 5572 5567 5562 5557 5552 5547 5541 5534 5529 5523 5517 5511 5505 5499 5493 5487 5481 5475 5468 5462 5456 5449 5442 5435 5428
5656 5652 5645 5644 5638 5631 5626 5621 5615 5610 5604 5599 5594 5589 5585 5580 5575 5571 5566 5560 5556 5551 5546 5540 5535 5529 5523 5517 5511 5505 5499 5493 5487 5481 5474 5468 5462 5456 5450 5444 5437 5431 5424 5418
5641 5637 5631 5628 5623 5617 5611 5606 5601 5596 5591 5586 5581 5577 5572 5568 5563 5559 5553 5548 5544 5539 5533 5527 5522 5516 5510 5503 5497 5491 5485 5479 5473 5467 5461 5454 5448 5443 5437 5431 5425 5419 5413 5407
5626 5621 5618 5613 5608 5602 5597 5592 5587 5582 5577 5572 5568 5563 5559 5555 5550 5545 5540 5535 5530 5525 5519 5513 5508 5502 5495 5490 5483 5477 5471 5464 5458 5452 5446 5440 5434 5429 5424 5418 5414 5408 5403 5397
5609 5604 5601 5596 5592 5587 5582 5577 5572 5567 5563 5558 5553 5549 5545 5541 5537 5532 5527 5521 5516 5511 5504 5499 5494 5487 5481 5475 5469 5462 5456 5449 5443 5437 5431 5424 5419 5414 5409 5405 5401 5396 5391 5387
5593 5588 5584 5580 5575 5571 5566 5561 5557 5553 5548 5544 5540 5536 5531 5527 5523 5518 5513 5507 5502 5496 5490 5485 5479 5473 5466 5460 5454 5447 5440 5433 5427 5421 5415 5409 5403 5398 5394 5391 5387 5384 5380 5376
5576 5571 5567 5563 5559 5554 5550 5546 5542 5538 5534 5530 5526 5522 5518 5513 5509 5504 5499 5493 5487 5481 5475 5470 5464 5458 5451 5444 5438 5431 5424 5417 5411 5405 5398 5392 5387 5383 5379 5376 5374 5371 5368 5366
5558 5555 5551 5547 5543 5539 5535 5531 5527 5523 5519 5515 5512 5508 5503 5499 5494 5490 5485 5479 5474 5468 5461 5454 5449 5442 5436 5429 5422 5415 5408 5401 5395 5388 5382 5376 5370 5366 5363 5361 5359 5358 5356 5355
5542 5539 5535 5532 5528 5524 5521 5517 5513 5509 5505 5501 5497 5494 5489 5485 5480 5475 5471 5465 5459 5454 5448 5441 5435 5428 5422 5415 5408 5401 5394 5387 5380 5372 5366 5359 5354 5349 5347 5346 5345 5345 5345 5344
5528 5525 5521 5518 5514 5510 5507 5503 5499 5496 5492 5488 5484 5481 5476 5472 5467 5462 5457 5451 5444 5439 5435 5428 5422 5416 5409 5403 5395 5388 5381 5373 5365 5357 5350 5344 5339 5335 5332 5331 5331 5333 5334 5335
5515 5512 5508 5505 5501 5497 5493 5489 5485 5482 5479 5475 5471 5467 5463 5459 5454 5448 5444 5439 5433 5426 5421 5415 5409 5403 5397 5391 5383 5376 5368 5360 5352 5344 5337 5331 5326 5322 5319 5319 5320 5322 5324 5326
5502 5499 5495 5491 5488 5485 5481 5476 5472 5469 5466 5462 5458 5453 5450 5446 5441 5436 5430 5425 5421 5415 5409 5403 5397 5391 5385 5378 5371 5364 5356 5348 5340 5332 5326 5320 5316 5312 5310 5310 5312 5314 5316 5319
5490 5486 5482 5478 5474 5471 5468 5464 5459 5456 5452 5449 5445 5441 5437 5433 5428 5423 5420 5414 5408 5403 5398 5392 5386 5380 5374 5367 5360 5352 5344 5336 5328 5321 5314 5309 5305 5303 5302 5303 5305 5307 5310 5312
5476 5472 5469 5465 5461 5458 5455 5451 5448 5444 5440 5436 5432 5428 5424 5420 5416 5411 5406 5402 5397 5392 5387 5382 5376 5370 5363 5356 5349 5341 5333 5325 5317 5309 5304 5299 5296 5294 5294 5296 5298 5301 5304 5307
5462 5459 5455 5452 5448 5445 5442 5439 5436 5432 5428 5425 5420 5416 5411 5407 5403 5400 5395 5391 5386 5382 5377 5372 5366 5360 5353 5346 5339 5332 5323 5315 5306 5299 5293 5290 5288 5287 5288 5290 5293 5297 5300 5303
5449 5445 5442 5438 5435 5431 5428 5426 5423 5419 5416 5413 5409 5404 5399 5395 5391 5388 5384 5381 5376 5372 5367 5362 5357 5351 5344 5338 5331 5323 5314 5306 5299 5292 5287 5283 5282 5282 5283 5286 5290 5293 5297 5300
5436 5432 5429 5426 5422 5419 5415 5412 5409 5406 5403 5399 5397 5393 5388 5384 5380 5377 5374 5370 5367 5363 5358 5353 5348 5342 5336 5330 5323 5315 5308 5300 5293 5287 5283 5280 5279 5279 5281 5284 5288 5291 5295 5298